Meteo pe oră la Bolshie Iodkovichi

Astăzi, 9 Mai, Duminică

Timp Temperatura Precipitaţii Vânt Presiune Umiditate
00:00 +3°C° 0 mm 2 m/s 754 mmHg 94%
01:00 +2°C° 0 mm 2 m/s 754 mmHg 94%
02:00 +2°C° 0 mm 2 m/s 755 mmHg 94%
03:00 +2°C° 0 mm 2 m/s 755 mmHg 94%
04:00 +1°C° 0 mm 2 m/s 755 mmHg 94%
05:00 +1°C° 0 mm 2 m/s 755 mmHg 94%
06:00 +3°C° 0 mm 2 m/s 756 mmHg 88%
07:00 +5°C° 0 mm 2 m/s 756 mmHg 83%
08:00 +7°C° 0 mm 2 m/s 756 mmHg 78%
09:00 +8°C° 0 mm 2 m/s 756 mmHg 69%
10:00 +10°C° 0 mm 3 m/s 756 mmHg 60%
11:00 +11°C° 0 mm 3 m/s 756 mmHg 51%
12:00 +12°C° 0 mm 3 m/s 756 mmHg 49%
13:00 +13°C° 0 mm 4 m/s 756 mmHg 48%
14:00 +14°C° 0 mm 5 m/s 755 mmHg 47%
15:00 +14°C° 0 mm 4 m/s 755 mmHg 51%
16:00 +14°C° 0 mm 4 m/s 755 mmHg 56%
17:00 +13°C° 0 mm 3 m/s 755 mmHg 60%
18:00 +13°C° 0 mm 3 m/s 755 mmHg 63%
19:00 +12°C° 0 mm 3 m/s 755 mmHg 66%
20:00 +11°C° 0 mm 3 m/s 755 mmHg 69%
21:00 +11°C° 0 mm 4 m/s 755 mmHg 69%
22:00 +11°C° 0 mm 4 m/s 755 mmHg 69%
23:00 +11°C° 0 mm 4 m/s 755 mmHg 69%

Mâine, 10 Mai, Luni

Timp Temperatura Precipitaţii Vânt Presiune Umiditate
00:00 +11°C° 0 mm 4 m/s 755 mmHg 70%
01:00 +10°C° 0 mm 4 m/s 755 mmHg 71%
02:00 +10°C° 0 mm 4 m/s 755 mmHg 73%
03:00 +8°C° 0 mm 4 m/s 755 mmHg 77%
04:00 +7°C° 0 mm 4 m/s 755 mmHg 81%
05:00 +6°C° 0 mm 4 m/s 755 mmHg 85%
06:00 +8°C° 0 mm 5 m/s 756 mmHg 80%
07:00 +10°C° 0 mm 5 m/s 756 mmHg 75%
08:00 +13°C° 0 mm 6 m/s 756 mmHg 70%
09:00 +14°C° 0 mm 6 m/s 756 mmHg 65%
10:00 +16°C° 0 mm 7 m/s 756 mmHg 60%
11:00 +17°C° 0 mm 7 m/s 756 mmHg 55%
12:00 +18°C° 0 mm 7 m/s 756 mmHg 54%
13:00 +18°C° 0 mm 7 m/s 755 mmHg 53%
14:00 +20°C° 0 mm 7 m/s 755 mmHg 53%
15:00 +20°C° 0 mm 7 m/s 755 mmHg 56%
16:00 +18°C° 0 mm 7 m/s 755 mmHg 59%
17:00 +18°C° 0 mm 7 m/s 755 mmHg 62%
18:00 +17°C° 0 mm 6 m/s 755 mmHg 65%
19:00 +16°C° 0 mm 6 m/s 755 mmHg 69%
20:00 +14°C° 0 mm 5 m/s 755 mmHg 72%
21:00 +14°C° 0 mm 5 m/s 755 mmHg 73%
22:00 +13°C° 0 mm 5 m/s 755 mmHg 74%
23:00 +12°C° 0 mm 5 m/s 755 mmHg 75%

Poimâine, 11 Mai, Marţi

Timp Temperatura Precipitaţii Vânt Presiune Umiditate
00:00 +12°C° 0 mm 5 m/s 755 mmHg 76%
01:00 +10°C° 0 mm 5 m/s 755 mmHg 77%
02:00 +10°C° 0 mm 5 m/s 755 mmHg 78%
03:00 +9°C° 0 mm 5 m/s 755 mmHg 79%
04:00 +9°C° 0 mm 5 m/s 755 mmHg 80%
05:00 +8°C° 0 mm 5 m/s 755 mmHg 81%
06:00 +10°C° 0 mm 6 m/s 755 mmHg 78%
07:00 +11°C° 0 mm 7 m/s 755 mmHg 75%
08:00 +12°C° 0 mm 7 m/s 755 mmHg 71%
09:00 +15°C° 0 mm 7 m/s 755 mmHg 66%
10:00 +16°C° 0 mm 8 m/s 755 mmHg 61%
11:00 +17°C° 0 mm 8 m/s 755 mmHg 56%
12:00 +18°C° 0 mm 8 m/s 755 mmHg 54%
13:00 +20°C° 0 mm 8 m/s 755 mmHg 53%
14:00 +20°C° 0 mm 8 m/s 754 mmHg 52%
15:00 +20°C° 0 mm 7 m/s 754 mmHg 53%
16:00 +18°C° 0 mm 7 m/s 754 mmHg 55%
17:00 +18°C° 0 mm 7 m/s 754 mmHg 57%
18:00 +17°C° 0 mm 6 m/s 754 mmHg 61%
19:00 +15°C° 0 mm 5 m/s 754 mmHg 65%
20:00 +13°C° 0 mm 5 m/s 754 mmHg 69%
21:00 +12°C° 0 mm 5 m/s 754 mmHg 69%
22:00 +12°C° 0 mm 5 m/s 754 mmHg 69%
23:00 +10°C° 0 mm 5 m/s 754 mmHg 70%

12 Mai, Miercuri

Timp Temperatura Precipitaţii Vânt Presiune Umiditate
00:00 +10°C° 0 mm 4 m/s 753 mmHg 73%
01:00 +10°C° 0 mm 4 m/s 753 mmHg 76%
02:00 +8°C° 0 mm 4 m/s 753 mmHg 79%
03:00 +8°C° 0 mm 4 m/s 753 mmHg 83%
04:00 +8°C° 0 mm 4 m/s 753 mmHg 87%
05:00 +8°C° 0 mm 4 m/s 753 mmHg 91%
06:00 +10°C° 0 mm 5 m/s 753 mmHg 87%
07:00 +12°C° 0 mm 5 m/s 753 mmHg 83%
08:00 +14°C° 0 mm 6 m/s 752 mmHg 80%
09:00 +15°C° 0 mm 6 m/s 752 mmHg 72%
10:00 +16°C° 0 mm 6 m/s 752 mmHg 65%
11:00 +19°C° 0 mm 6 m/s 752 mmHg 58%
12:00 +19°C° 0 mm 6 m/s 751 mmHg 58%
13:00 +20°C° 0 mm 6 m/s 751 mmHg 57%
14:00 +20°C° 0 mm 6 m/s 751 mmHg 57%
15:00 +19°C° 0 mm 5 m/s 750 mmHg 64%
16:00 +17°C° 0 mm 5 m/s 750 mmHg 71%
17:00 +17°C° 0 mm 4 m/s 750 mmHg 78%
18:00 +15°C° 0.1 mm 4 m/s 749 mmHg 81%
19:00 +14°C° 0.1 mm 4 m/s 749 mmHg 83%
20:00 +13°C° 0.1 mm 4 m/s 749 mmHg 85%
21:00 +12°C° 0.3 mm 4 m/s 749 mmHg 87%
22:00 +10°C° 0.3 mm 5 m/s 749 mmHg 89%
23:00 +10°C° 0.3 mm 5 m/s 749 mmHg 90%

13 Mai, Joi

Timp Temperatura Precipitaţii Vânt Presiune Umiditate
00:00 +9°C° 0 mm 5 m/s 749 mmHg 92%
01:00 +8°C° 0 mm 5 m/s 749 mmHg 93%
02:00 +7°C° 0 mm 4 m/s 749 mmHg 95%
03:00 +7°C° 0 mm 4 m/s 749 mmHg 95%
04:00 +7°C° 0 mm 4 m/s 749 mmHg 95%
05:00 +7°C° 0 mm 4 m/s 749 mmHg 95%
06:00 +8°C° 0 mm 4 m/s 749 mmHg 92%
07:00 +10°C° 0 mm 4 m/s 748 mmHg 89%
08:00 +10°C° 0 mm 5 m/s 748 mmHg 86%
09:00 +10°C° 0.1 mm 5 m/s 748 mmHg 84%
10:00 +12°C° 0.1 mm 4 m/s 747 mmHg 81%
11:00 +12°C° 0.1 mm 4 m/s 747 mmHg 79%
12:00 +12°C° 0.2 mm 4 m/s 746 mmHg 83%
13:00 +11°C° 0.2 mm 3 m/s 746 mmHg 86%
14:00 +11°C° 0.2 mm 3 m/s 746 mmHg 90%
15:00 +12°C° 0.2 mm 2 m/s 745 mmHg 91%
16:00 +12°C° 0.2 mm 2 m/s 745 mmHg 91%
17:00 +12°C° 0.2 mm 1 m/s 745 mmHg 92%
18:00 +11°C° 0.1 mm 1 m/s 745 mmHg 93%
19:00 +11°C° 0.1 mm 1 m/s 744 mmHg 93%
20:00 +11°C° 0.1 mm 1 m/s 744 mmHg 94%
21:00 +11°C° 0 mm 1 m/s 744 mmHg 94%
22:00 +10°C° 0 mm 1 m/s 744 mmHg 93%
23:00 +10°C° 0 mm 1 m/s 744 mmHg 93%

14 Mai, Vineri

Timp Temperatura Precipitaţii Vânt Presiune Umiditate
00:00 +10°C° 0 mm 1 m/s 744 mmHg 93%
01:00 +9°C° 0 mm 1 m/s 744 mmHg 93%
02:00 +9°C° 0 mm 1 m/s 744 mmHg 93%
03:00 +8°C° 0 mm 2 m/s 745 mmHg 94%
04:00 +7°C° 0 mm 2 m/s 745 mmHg 95%
05:00 +7°C° 0 mm 2 m/s 745 mmHg 95%
06:00 +9°C° 0 mm 2 m/s 745 mmHg 91%
07:00 +10°C° 0 mm 2 m/s 745 mmHg 86%
08:00 +12°C° 0 mm 3 m/s 745 mmHg 82%
09:00 +13°C° 0 mm 3 m/s 745 mmHg 75%
10:00 +16°C° 0 mm 3 m/s 745 mmHg 68%
11:00 +17°C° 0 mm 3 m/s 745 mmHg 62%
12:00 +17°C° 0.1 mm 3 m/s 745 mmHg 61%
13:00 +17°C° 0.1 mm 3 m/s 745 mmHg 61%
14:00 +18°C° 0.1 mm 4 m/s 745 mmHg 61%
15:00 +15°C° 0 mm 4 m/s 745 mmHg 69%
16:00 +14°C° 0 mm 3 m/s 746 mmHg 76%
17:00 +13°C° 0 mm 3 m/s 746 mmHg 84%
18:00 +13°C° 0 mm 3 m/s 746 mmHg 86%
19:00 +13°C° 0 mm 2 m/s 746 mmHg 89%
20:00 +13°C° 0 mm 2 m/s 746 mmHg 92%
21:00 +12°C° 0 mm 2 m/s 746 mmHg 93%
22:00 +12°C° 0 mm 2 m/s 746 mmHg 94%
23:00 +12°C° 0 mm 1 m/s 746 mmHg 94%
Arată mai mult

Formular de consimțământ

Meteoprog și furnizorii noștri de servicii pot stoca și accesa date personale, precum cookies, identificatori de dispozitiv sau alte tehnologii similare pe dispozitivul dumneavoastră și procesa astfel de date pentru a personaliza conținutul și reclamele, dar și pentru a oferi caracteristici de social media și pentru a analiza traficul.

  • Stocarea și/sau accesarea informațiilor pe dispozitivul dumneavoastră

    Cookies, identificatori de dispozitiv sau alte informații pot fi stocate sau accesate pe dispozitiv în scopurile indicate mai sus.

  • Reclame și conținut personalizat, evaluarea reclamelor și a conținutului, informații despre audiențe și dezvoltarea produselor

    Reclamele și conținutul pot fi personalizate pe baza unui profil. Pot fi adăugate date suplimentare pentru a personaliza mai bine reclamele și conținutul. Performanța reclamelor și conținutului poate fi măsurată. Pot fi obținute informații despre utilizatorii care au văzut reclamele și conținutul. Aceste date pot fi utilizate pentru a dezvolta sau îmbunătăți experiența utilizatorilor, sistemele și software-ul.

Dând clic pe ‘Sunt de acord’, permiteți utilizarea cookie-urilor menționate, a identificatorilor de dispozitiv, balizelor web sau altor tehnologii similare. Setările pot fi modificate din browser-ul dispozitivului dumneavoastră.

În anumite scopuri, interesele legitime pot prima asupra consimțământului. Puteți citi mai multe informații în acest sens în Politica privind Confidențialitatea Datelor și Cookie.